Location: Cabo di Oristano
(39.8500°N, 8.4333°E)
Time: 17:43:28
(UTC+00:00)

Cosmos 1340 Rocket - Pass Details

Date: 31 January 2023
Orbit: 514 x 558 km, 81.2° (Epoch: 01 April)

Event Time Altitude Azimuth Distance (km) Brightness Sun altitude
Exits shadow 05:17:16 28° 275° (W) 1,064 3.7 -15.3°
Maximum altitude 05:17:31 28° 268° (W) 1,059 3.7 -15.2°
Drops below altitude 10° 05:21:00 10° 209° (SSW) 1,838 5.3 -14.6°
Sets 05:23:23 0° 197° (SSW) 2,732 6.3 -14.1°
